Hourly Data Report for July 02, 2021

BORDEN AWOS
ONTARIO
Current Station Operator: DND

44°16'20.000" N
79°54'42.000" W
222.50 m
611B002
71534
YBN

Download Data

Hourly Data (July 2021)
Hourly Data Report for July 2, 2021
TIME
LST
Temp Definition
°C
Dew Point Definition
°C
Rel Hum Definition
%
Precip. Amount Definition
mm

Wind Dir Definition
10's deg

Wind Spd Definition
km/h
Visibility Definition
km
Stn Press Definition
kPa
Hmdx Definition


Wind Chill Definition


Weather Definition


00:00 15.0 14.3 96   31 7 14.5 98.66     LegendNANA
01:00 14.9 14.2 96   33 11 14.5 98.64     LegendNANA
02:00 15.4 14.4 94   33 9 14.5 98.60     LegendNANA
03:00 15.0 14.7 98   32 9 14.5 98.58     Rain
04:00 14.7 14.5 99   33 7 2.7 98.63     Moderate Rain
05:00 14.8 14.6 99   32 7 14.5 98.66     Rain
06:00
07:00
08:00
09:00 17.3 15.3 88   34 11 14.5 98.73     LegendNANA
10:00 18.9 15.5 81   32 19 14.5 98.68     LegendNANA
11:00 20.8 15.4 71   35 22 14.5 98.67 25   LegendNANA
12:00 19.0 16.8 87   33 7 14.5 98.64     Rain
13:00 22.7 15.1 62   34 20 14.5 98.57 27   LegendNANA
14:00 22.5 14.0 59   32 22 14.5 98.57 26   LegendNANA
15:00 22.7 13.0 54   32 30 14.5 98.56 25   LegendNANA
16:00 22.2 13.0 56   31 19 14.5 98.55 25   LegendNANA
17:00 16.3 15.5 95   12 7 3.9 98.64     LegendNANA
18:00 18.1 15.9 87     0 14.5 98.62     Rain
19:00 17.2 16.0 93   28 6 12.9 98.65     Rain
20:00 16.5 13.6 83   31 6 14.5 98.63     LegendNANA
21:00 16.3 13.7 85   30 4 14.5 98.67     LegendNANA
22:00 15.2 14.4 95     0 14.5 98.65     LegendNANA
23:00 14.2 13.9 98   28 4 14.5 98.62     LegendNANA

Notes on Data Quality.

Legend

  • E = Estimated
  • M = Missing
  • NA = Not Available*
  • [empty] = Indicates an unobserved value
Date modified: